Lake Wenatchee to Mission Ridge
Lake Wenatchee
Latest observation 08/31 19:00 PDT
| Time (PDT) | Temp °F 1930' | RH % 1930' | Pcp1 in 1930' | PcpSum in 1930' | 24Sno in 1930' | SnoHt in 1930' |
|---|---|---|---|---|---|---|
| 08/31 19:00 | 76 | 31 | 0.00 | 0.00 | 3.6 | 4.4 |
| 08/31 18:00 | 79 | 28 | 0.00 | 0.00 | 4.3 | 3.8 |
| 08/31 17:00 | 80 | 26 | 0.00 | 0.00 | 5.1 | 5.0 |
| 08/31 16:00 | 80 | 26 | 0.00 | 0.00 | 5.0 | 5.2 |
| 08/31 15:00 | 79 | 29 | 0.00 | 0.00 | 5.1 | 4.4 |
| 08/31 14:00 | 78 | 31 | 0.00 | 0.00 | 4.7 | 4.9 |
| 08/31 13:00 | 74 | 36 | 0.00 | 0.00 | 3.6 | 4.7 |
| 08/31 12:00 | 69 | 45 | 0.00 | 0.00 | 5.3 | 4.5 |
| 08/31 11:00 | 64 | 54 | 0.00 | 0.00 | 3.6 | 4.6 |
| 08/31 10:00 | 58 | 67 | 0.00 | 0.00 | 4.4 | 4.7 |
| 08/31 09:00 | 52 | 80 | 0.00 | 0.00 | 3.7 | 4.6 |
| 08/31 08:00 | 45 | 90 | 0.00 | 0.00 | 4.2 | 4.5 |
| 08/31 07:00 | 43 | 93 | 0.00 | 0.00 | 4.0 | 4.5 |
| 08/31 06:00 | 44 | 93 | 0.00 | 0.00 | 3.9 | 4.4 |
| 08/31 05:00 | 44 | 92 | 0.00 | 0.00 | 3.8 | 4.4 |
| 08/31 04:00 | 46 | 91 | 0.00 | 0.00 | 3.7 | 4.4 |
| 08/31 03:00 | 48 | 87 | 0.00 | 0.00 | 3.3 | 4.6 |
| 08/31 02:00 | 50 | 81 | 0.00 | 0.00 | 3.1 | 4.5 |
| 08/31 01:00 | 54 | 74 | 0.00 | 0.00 | 3.6 | 4.5 |
| 08/31 00:00 | 56 | 70 | 0.00 | 0.00 | 3.6 | 4.5 |
| 08/30 23:00 | 59 | 65 | 0.00 | 0.00 | 3.8 | 4.5 |
| 08/30 22:00 | 60 | 62 | 0.00 | 0.00 | 3.3 | 4.6 |
| 08/30 21:00 | 61 | 59 | 0.00 | 0.00 | 4.6 | 4.6 |
| 08/30 20:00 | 62 | 57 | 0.00 | 0.00 | 4.3 | 4.5 |

